{"data":{"norad_id":55753,"intl_designator":"2023-028N","name":"STARLINK-5617","alt_names":[],"object_type":"PAYLOAD","status":"ACTIVE","operator":null,"country":"US","launch_date":"2023-03-03","launch_site_code":"AFWTR","launch_vehicle":null,"mission":null,"orbit_class":"UNKNOWN","rcs_meters":null,"size_class":null,"mass_kg":null,"dimensions":null,"purposes":["comms"],"wikipedia_slug":null,"has_3d_model":false,"image_url":null,"decayed_at":null,"tle_current":{"epoch":"2026-09-20T22:00:03.000096Z","epoch_age_seconds":67115,"freshness":"FRESH","line1":"1 55753U 23028N   26263.91670139  .00068860  00000+0  47481-2 0  9998","line2":"2 55753  70.0009 112.1280 0000404 330.3364 107.3053 15.05429350  5624","mean_motion":15.0542935,"eccentricity":4.04e-5,"inclination_deg":70.0009,"raan_deg":112.128,"arg_perigee_deg":330.3364,"mean_anomaly_deg":107.3053,"bstar":0.0047481,"rev_number":562,"period_min":95.653774785246,"perigee_km":549.90815437271,"apogee_km":550.46796303745,"semimajor_km":6928.3250587051,"source":"CELESTRAK","updated_at":"2026-09-21T09:00:33.313592Z"}}}